This is the latest recevied weather packets stored in our database for station/object N4QB-13. If no packets are shown the sender has not sent any weather packets the latest 10 day(s).
| Time | Temp. | Humidity | Pressure | Rain* | Wind** | Luminosity | Snow |
|---|---|---|---|---|---|---|---|
| 1777314343 | 26.11° C | 67% | 1016 hPa | 0 mm | - | 684 W/m² | - |
| 1777314040 | 26.11° C | 68% | 1016.3 hPa | 0 mm | - | 671 W/m² | - |
| 1777313738 | 26.11° C | 68% | 1016.2 hPa | 0 mm | - | 690 W/m² | - |
| 1777313435 | 25.56° C | 68% | 1016.3 hPa | 0 mm | - | 676 W/m² | - |
| 1777313132 | 25.56° C | 69% | 1016.4 hPa | 0 mm | - | 688 W/m² | - |
| 1777312828 | 25.56° C | 69% | 1016.4 hPa | 0 mm | - | 173 W/m² | - |
| 1777312525 | 25.56° C | 68% | 1016.5 hPa | 0 mm | - | 687 W/m² | - |
| 1777312222 | 25.56° C | 69% | 1016.7 hPa | 0 mm | - | 693 W/m² | - |
| 1777311919 | 25° C | 70% | 1016.7 hPa | 0 mm | - | 83 W/m² | - |
| 1777311616 | 25.56° C | 70% | 1016.5 hPa | 0 mm | - | 100 W/m² | - |
| 1777311314 | 25.56° C | 69% | 1016.7 hPa | 0 mm | - | 81 W/m² | - |
| 1777311011 | 25.56° C | 71% | 1016.8 hPa | 0 mm | - | 72 W/m² | - |
| 1777310709 | 25.56° C | 70% | 1016.8 hPa | 0 mm | - | 110 W/m² | - |
| 1777310406 | 25° C | 72% | 1016.7 hPa | 0 mm | - | 108 W/m² | - |
| 1777310103 | 25° C | 72% | 1016.8 hPa | 0 mm | - | 86 W/m² | - |
| 1777309801 | 25° C | 72% | 1016.9 hPa | 0 mm | - | 155 W/m² | - |
| 1777309498 | 24.44° C | 72% | 1016.9 hPa | 0 mm | - | 92 W/m² | - |
| 1777309195 | 25° C | 72% | 1016.8 hPa | 0 mm | - | 78 W/m² | - |
| 1777308894 | 24.44° C | 73% | 1016.9 hPa | 0 mm | - | 108 W/m² | - |
| 1777308588 | 24.44° C | 73% | 1017 hPa | 0 mm | - | 73 W/m² | - |
| 1777308284 | 24.44° C | 74% | 1016.9 hPa | 0 mm | - | 108 W/m² | - |
| 1777307979 | 25° C | 74% | 1016.8 hPa | 0 mm | - | 103 W/m² | - |
| 1777307678 | 24.44° C | 75% | 1016.9 hPa | 0 mm | - | 82 W/m² | - |
| 1777307374 | 23.89° C | 75% | 1017.1 hPa | 0 mm | - | 92 W/m² | - |
| 1777307072 | 23.89° C | 76% | 1017.1 hPa | 0 mm | - | 73 W/m² | - |
* Rain latest hour (hover to see other rain measurements)
** Current wind speed in m/s (hover to see current wind gust speed)